Location: Newark
(45.5000°N, 11.4167°E)
Time: 22:35:30
(UTC+00:00)

A-11 Canister half - Pass Details

Date: 28 August 2019
Orbit: 1514 x 1686 km, 47.2° (Epoch: 15 September)

Event Time Altitude Azimuth Distance (km) Brightness Sun altitude
Rises 19:54:18 0° 285° (WNW) 4,725 12.8 -18.8°
Reaches altitude 10° 19:57:19 10° 285° (WNW) 3,761 12.1 -19.2°
Maximum altitude 20:06:55 86° 199° (SSW) 1,616 9.0 -20.6°
Enters shadow 20:12:47 29° 112° (ESE) 2,652 9.7 -21.3°
Drops below altitude 10° 20:16:54 10° 112° (ESE) 3,892 - -21.9°
Sets 20:20:05 0° 112° (ESE) 4,896 - -22.3°
